Tracking 27419 objects as of 9-Jun-2023
HD Live streaming from Space Station
objects crossing your sky now

THOR ABLESTAR DEB

Track THOR ABLESTAR DEB now!
10-day predictions


NORAD ID: 21986
Int'l Code: 1961-015MM
Perigee: 817.1 km
Apogee: 948.5 km
Inclination: 66.9 °
Period: 102.5 minutes
Semi major axis: 7253 km
RCS: 0.0015 m2 (small)
Launch date: June 29, 1961
Source: United States (US)
Launch site: AIR FORCE EASTERN TEST RANGE (AFETR)

Note: This is SATELLITE DEBRIS
Your satellite tracking list
Your tracking list is empty




NASA's NSSDC Master Catalog

Two Line Element Set (TLE):
1 21986U 61015MM  23159.13746506  .00000194  00000-0  16249-3 0  9990
2 21986  66.8781  44.3758 0090553 122.5936  32.4666 14.05258436597562
Source of the keplerian elements: AFSPC